OE1TRI-13 Weather Reports


time (UTC)temp
C
wind
direction
speed
KPH
gust
KPH
rain 1hr
cm
rain 24hr
cm
rain mn
cm
humidity
%
barometer
mb
20260505205004 10 180 0.0 1.6 0.00 0.00 0.00 70 1025.1
20260505204004 10 180 0.0 0.0 0.00 0.00 0.00 67 1025.1
20260505203005 11 180 0.0 1.6 0.00 0.00 0.00 66 1025.1
20260505201005 12 180 0.0 3.2 0.00 0.00 0.00 60 1025.1
20260505195005 12 203 1.6 1.6 0.00 0.00 0.00 63 1025.0
20260505194005 12 248 3.2 3.2 0.00 0.00 0.00 65 1024.0
20260505191005 14 180 3.2 4.8 0.00 0.00 0.00 58 1024.0
20260505190005 14 180 1.6 8.0 0.00 0.00 0.00 55 1024.0
20260505184005 13 180 1.6 3.2 0.00 0.00 0.00 64 1023.0
20260505183005 14 180 1.6 3.2 0.00 0.00 0.00 63 1023.0
20260505182004 15 180 1.6 3.2 0.00 0.00 0.00 61 1023.0
20260505181005 16 202 0.0 1.6 0.00 0.00 0.00 58 1023.0
20260505180005 18 202 1.6 1.6 0.00 0.00 0.00 51 1023.0
20260505175004 19 202 1.6 1.6 0.00 0.00 0.00 46 1023.0
20260505174004 20 292 1.6 1.6 0.00 0.00 0.00 46 1023.0
20260505171004 20 135 1.6 1.6 0.00 0.00 0.00 43 1023.0
20260505170005 22 225 0.0 1.6 0.00 0.00 0.00 44 1023.0
20260505165005 23 225 1.6 1.6 0.00 0.00 0.00 36 1023.0
20260505163005 24 225 8.0 9.7 0.00 0.00 0.00 36 1023.0
20260505162004 23 202 9.7 9.7 0.00 0.00 0.00 35 1023.0
20260505153005 17 292 1.6 4.8 0.00 0.00 0.00 53 1024.0
20260505152005 17 292 1.6 1.6 0.00 0.00 0.00 58 1024.0
20260505124005 21 180 11.3 19.3 0.00 0.00 0.00 34 1023.0
20260505123005 21 112 8.0 20.9 0.00 0.00 0.00 34 1023.0
20260505122005 22 135 16.1 20.9 0.00 0.00 0.00 34 1023.0
20260505121004 22 112 9.7 11.3 0.00 0.00 0.00 32 1023.0
20260505120005 22 202 9.7 16.1 0.00 0.00 0.00 33 1023.0
20260505115005 22 158 11.3 20.9 0.00 0.00 0.00 33 1023.0
20260505114005 22 158 16.1 22.5 0.00 0.00 0.00 32 1023.0
20260505113005 23 90 20.9 22.5 0.00 0.00 0.00 30 1023.0
20260505112005 24 135 12.9 12.9 0.00 0.00 0.00 28 1023.0
20260505111005 25 180 8.0 27.4 0.00 0.00 0.00 27 1023.0
20260505102005 25 158 9.7 11.3 0.00 0.00 0.00 25 1024.0
20260505101005 24 180 4.8 12.9 0.00 0.00 0.00 25 1024.0
20260505100005 23 90 11.3 12.9 0.00 0.00 0.00 27 1024.0
20260505095005 23 45 9.7 9.7 0.00 0.00 0.00 28 1024.0
20260505094004 23 45 8.0 9.7 0.00 0.00 0.00 27 1024.0
20260505093005 22 68 8.0 8.0 0.00 0.00 0.00 29 1025.1
20260505092005 21 68 1.6 9.7 0.00 0.00 0.00 31 1025.1
20260505091005 21 45 8.0 9.7 0.00 0.00 0.00 33 1025.1
20260505090005 20 22 9.7 9.7 0.00 0.00 0.00 34 1025.1
20260505085004 20 45 8.0 11.3 0.00 0.00 0.00 35 1025.1
20260505084005 19 22 11.3 11.3 0.00 0.00 0.00 36 1025.1
20260505083005 18 45 3.2 9.7 0.00 0.00 0.00 40 1025.1
20260505082005 18 22 9.7 9.7 0.00 0.00 0.00 43 1025.1
20260505081005 19 315 4.8 4.8 0.00 0.00 0.00 41 1025.1
20260505080005 20 292 1.6 9.7 0.00 0.00 0.00 41 1025.1
20260505075004 20 45 9.7 9.7 0.00 0.00 0.00 38 1025.1
20260505074005 17 45 0.0 4.8 0.00 0.00 0.00 44 1026.1
20260505073005 15 45 3.2 4.8 0.00 0.00 0.00 48 1026.1
20260505072004 15 45 4.8 4.8 0.00 0.00 0.00 50 1026.1
20260505071004 15 22 1.6 8.0 0.00 0.00 0.00 52 1026.1
20260505070005 16 22 8.0 8.0 0.00 0.00 0.00 48 1026.1
20260505065004 16 59 3.2 8.0 0.00 0.00 0.00 47 1026.1
20260505064005 15 58 1.6 3.2 0.00 0.00 0.00 49 1026.1
20260505062005 15 69 1.6 1.6 0.00 0.00 0.00 50 1026.1
20260505061005 13 135 1.6 1.6 0.00 0.00 0.00 57 1026.1
20260505060005 12 135 1.6 1.6 0.00 0.00 0.00 57 1026.1
20260505052005 8 135 0.0 0.0 0.00 0.00 0.00 73 1027.1
20260505051005 7 135 0.0 0.0 0.00 0.00 0.00 76 1027.1
20260505040005 6 225 0.0 0.0 0.00 0.00 0.00 80 1027.1
20260505035005 6 225 0.0 0.0 0.00 0.00 0.00 79 1027.1
20260505034005 6 225 0.0 0.0 0.00 0.00 0.00 79 1027.1
20260505033004 6 225 0.0 0.0 0.00 0.00 0.00 78 1027.1
20260505032005 7 225 0.0 1.6 0.00 0.00 0.00 77 1027.1
20260505031004 7 225 1.6 1.6 0.00 0.00 0.00 76 1027.1
20260505030005 7 248 0.0 1.6 0.00 0.00 0.00 75 1027.1
20260505025005 7 135 0.0 3.2 0.00 0.00 0.00 75 1027.1
20260505023005 7 158 0.0 1.6 0.00 0.00 0.00 74 1027.1
20260505022005 7 158 0.0 1.6 0.00 0.00 0.00 74 1027.1
20260505020005 7 158 0.0 0.0 0.00 0.00 0.00 73 1027.1
20260505014005 8 158 0.0 0.0 0.00 0.00 0.00 72 1027.8
20260505013004 8 158 0.0 1.6 0.00 0.00 0.00 71 1027.8
20260505012005 8 158 1.6 1.6 0.00 0.00 0.00 71 1027.8
20260505011005 8 158 0.0 0.0 0.00 0.00 0.00 69 1027.8
20260505010005 9 158 0.0 0.0 0.00 0.00 0.00 67 1027.8
20260505005005 9 158 0.0 0.0 0.00 0.00 0.00 67 1027.8
20260505004005 10 158 0.0 0.0 0.00 0.00 0.00 66 1027.8
20260505003005 10 158 0.0 1.6 0.00 0.00 0.00 64 1027.8
20260505002005 10 158 1.6 1.6 0.00 0.00 0.00 63 1027.8
20260505001005 10 158 0.0 0.0 0.00 0.00 0.00 62 1027.8
20260505000005 11 158 0.0 0.0 0.00 0.00 0.00 60 1027.8
20260504235005 11 158 0.0 0.0 0.00 0.00 0.00 59 1027.8
20260504234005 11 158 0.0 0.0 0.00 0.00 0.00 59 1027.8
20260504233005 12 158 0.0 0.0 0.00 0.00 0.00 56 1027.8
20260504232005 12 158 0.0 1.6 0.00 0.00 0.00 55 1027.8
20260504231005 12 158 1.6 8.0 0.00 0.00 0.00 54 1027.8
20260504230005 12 180 3.2 8.0 0.00 0.00 0.00 53 1027.8
20260504224004 13 180 3.2 8.0 0.00 0.00 0.00 51 1028.8
20260504223005 13 180 1.6 3.2 0.00 0.00 0.00 51 1028.8
20260504222005 13 180 3.2 3.2 0.00 0.00 0.00 51 1028.8
20260504221005 13 180 1.6 4.8 0.00 0.00 0.00 50 1028.8
20260504220004 13 180 3.2 8.0 0.00 0.00 0.00 49 1027.8
20260504215005 13 180 3.2 8.0 0.00 0.00 0.00 49 1027.8
20260504214005 14 158 8.0 8.0 0.00 0.00 0.00 49 1027.8
20260504213004 14 158 1.6 1.6 0.00 0.00 0.00 50 1028.8
20260504212005 14 180 1.6 4.8 0.00 0.00 0.00 49 1028.8
20260504211005 14 202 1.6 1.6 0.00 0.00 0.00 49 1028.8